This is the latest recevied weather packets stored in our database for station/object KC3JUG-13. If no packets are shown the sender has not sent any weather packets the latest 10 day(s).
| Time | Temp. | Humidity | Pressure | Rain* | Wind** | Luminosity | Snow |
|---|---|---|---|---|---|---|---|
| 1788559584 | 26.11° C | 87% | 1013.2 hPa | 0 mm | - | - | - |
| 1788558804 | 26.11° C | 85% | 1013.1 hPa | 0 mm | - | - | - |
| 1788558024 | 26.11° C | 83% | 1013.3 hPa | 0 mm | - | - | - |
| 1788557244 | 26.11° C | 80% | 1013.3 hPa | 0 mm | - | - | - |
| 1788556464 | 26.67° C | 80% | 1013.4 hPa | 0 mm | - | - | - |
| 1788555684 | 26.67° C | 78% | 1013.6 hPa | 0 mm | - | - | - |
| 1788554976 | 27.22° C | 77% | 1013.5 hPa | 0 mm | - | - | - |
| 1788554944 | 27.22° C | 77% | 1013.5 hPa | 0 mm | - | - | - |
| 1788554904 | 27.22° C | 77% | 1013.5 hPa | 0 mm | - | - | - |
| 1788554124 | 26.67° C | 78% | 1013.3 hPa | 0 mm | - | - | - |
| 1788553344 | 27.22° C | 76% | 1013.1 hPa | 0 mm | - | - | - |
| 1788552564 | 27.22° C | 74% | 1013.2 hPa | 0 mm | - | - | - |
| 1788551784 | 27.22° C | 75% | 1013.5 hPa | 0 mm | - | - | - |
| 1788551004 | 27.22° C | 74% | 1013.8 hPa | 0 mm | - | - | - |
| 1788550256 | 27.22° C | 76% | 1014 hPa | 0 mm | - | - | - |
| 1788550224 | 27.22° C | 76% | 1014 hPa | 0 mm | - | - | - |
| 1788549444 | 27.22° C | 72% | 1014.3 hPa | 0 mm | - | - | - |
| 1788548664 | 27.22° C | 72% | 1014.4 hPa | 0 mm | - | - | - |
| 1788547907 | 27.22° C | 74% | 1014.5 hPa | 0 mm | - | - | - |
| 1788547104 | 26.67° C | 74% | 1014.6 hPa | 0 mm | - | - | - |
| 1788546324 | 27.22° C | 72% | 1014.7 hPa | 0 mm | - | - | - |
| 1788545544 | 27.22° C | 73% | 1014.7 hPa | 0 mm | - | - | - |
| 1788544764 | 26.67° C | 77% | 1014.8 hPa | 0 mm | - | - | - |
| 1788543984 | 26.67° C | 75% | 1015 hPa | 0 mm | - | - | - |
| 1788543204 | 26.67° C | 77% | 1014.8 hPa | 0 mm | - | - | - |
* Rain latest hour (hover to see other rain measurements)
** Current wind speed in m/s (hover to see current wind gust speed)